{"data":{"norad_id":67013,"intl_designator":"2025-293L","name":"STARLINK-35856","alt_names":[],"object_type":"PAYLOAD","status":"ACTIVE","operator":null,"country":"US","launch_date":"2025-12-10","launch_site_code":"AFWTR","launch_vehicle":null,"mission":null,"orbit_class":"UNKNOWN","rcs_meters":null,"size_class":null,"mass_kg":null,"dimensions":null,"purposes":["comms"],"wikipedia_slug":null,"has_3d_model":false,"image_url":null,"decayed_at":null,"tle_current":{"epoch":"2026-05-24T17:19:44.865984Z","epoch_age_seconds":102173,"freshness":"FRESH","line1":"1 67013U 25293L   26144.72204706  .00002656  00000+0  23030-3 0  9992","line2":"2 67013  70.0008 262.8731 0003687 264.3301  95.7438 14.98332730 26279","mean_motion":14.9833273,"eccentricity":0.0003687,"inclination_deg":70.0008,"raan_deg":262.8731,"arg_perigee_deg":264.3301,"mean_anomaly_deg":95.7438,"bstar":0.0002303,"rev_number":2627,"period_min":96.106824016318,"perigee_km":569.48491565121,"apogee_km":574.60998166366,"semimajor_km":6950.1844486574,"source":"CELESTRAK","updated_at":"2026-05-25T13:38:21.431644Z"}}}